Location: 22
(39.7117°N, 89.5929°W)
Time: 05:06:31
(UTC-05:00)

Vanguard 1 Rocket - Pass Details

Date: 07 February 2023
Orbit: 652 x 4223 km, 34.3° (Epoch: 26 March)

Event Time Altitude Azimuth Distance (km) Brightness Sun altitude
Rises 09:09:50 0° 199° (SSW) 3,435 10.7 20.5°
Reaches altitude 10° 09:12:36 10° 182° (S) 2,789 10.6 20.9°
Maximum altitude 09:17:31 21° 134° (SE) 2,642 15.0 21.6°
Drops below altitude 10° 09:24:43 10° 91° (E) 4,318 11.7 22.6°
Sets 09:30:31 0° 79° (E) 6,042 12.0 23.3°
